Simultaneous Nadir Overpasses (SNOs) Predictions

Prediction of SNOs between METOP-A and NOAA-19 Satellite Orbit:

Table of predicted SNOs for the next 14.0 days since TLE Epoch: 12/26/2020
Index Date (METOP-A) Time (METOP-A) Lat,Lon (METOP-A) SZA (METOP-A ) Date (NOAA-19) Time (NOAA-19) Lat,Lon (NOAA-19) SZA (NOAA-19 ) Distance(km) Time Diff (sec)
1 12/29/2020 14:15:59 -80.80, 158.57 75.89 12/29/2020 14:14:44 -80.81, 158.51 75.89 1.25 75
2 12/29/2020 15:06:39 80.81, -33.97 104.13 12/29/2020 15:05:45 80.80, -33.84 104.12 2.54 54
3 12/29/2020 15:57:21 -80.79, 133.09 75.91 12/29/2020 15:56:44 -80.81, 133.18 75.90 2.10 37
4 12/29/2020 16:48:01 80.80, -59.45 104.11 12/29/2020 16:47:46 80.81, -59.53 104.11 1.57 15
5 12/29/2020 17:38:42 -80.81, 107.96 75.89 12/29/2020 17:38:44 -80.80, 107.84 75.90 2.03 2
6 12/29/2020 18:29:23 80.79, -84.93 104.09 12/29/2020 18:29:46 80.80, -84.86 104.11 1.59 23
7 12/29/2020 19:20:04 -80.80, 82.48 75.91 12/29/2020 19:20:44 -80.80, 82.51 75.90 0.64 40



Historial Predications of SNOs between METOP-A and NOAA-19
